Location: C�risols
(43.1277°N, 1.0620°E)
Time: 12:54:20
(UTC+00:00)

Daily predictions for brighter satellites

Satellite Brightness Start Highest point End
(mag) Time Altitude Azimuth Time Altitude Azimuth Time Altitude Azimuth
YAOGAN 6 2.7 16:47:09 10° SSE 16:50:41 53° ENE 16:54:11 10° N
Cosmos 1606 2.8 16:48:58 10° S 16:52:51 89° E 16:56:45 10° N
Cosmos 962 Rocket 4.5 16:48:31 10° N 16:54:49 74° E 17:00:58 10° SSE
Cosmos 2297 3.7 16:49:09 10° NNW 16:54:51 72° ENE 17:00:33 10° SSE
SL-16 R/B 2.2 16:51:24 10° SSW 16:57:03 85° ESE 17:02:45 10° NNE
CZ-4B R/B 2.9 16:57:15 10° NE 16:59:27 17° E 17:01:40 10° SE
Landsat 5 3.7 16:56:14 10° NNE 17:00:43 85° E 17:05:14 10° SSW
BREEZE-M DEB (TANK) 1.7 16:58:27 10° WSW 17:01:36 78° NNW 17:03:26 11° ENE
SMAP 3.1 17:00:18 10° SSE 17:04:51 58° ENE 17:09:26 10° N
USA 215 4.4 16:59:54 10° ENE 17:05:10 25° SE 17:10:24 10° S
Sich 1 3.5 17:04:31 10° NNW 17:08:52 68° W 17:13:08 10° S
YAOGAN 1 4.5 17:09:18 11° NE 17:09:18 11° NE 17:09:57 10° NE
Cosmos 1151 Rocket 3.0 17:07:04 10° S 17:11:17 61° E 17:15:29 10° NNE
CZ-4C R/B 3.6 17:08:06 10° N 17:11:43 61° WNW 17:15:15 10° SSW
Cosmos 1470 Rocket 4.0 17:09:42 10° N 17:13:45 38° ENE 17:17:47 10° SE
Cosmos 1515 Rocket 4.1 17:15:19 10° SSE 17:19:20 37° E 17:23:24 10° NNE
CZ-2C R/B 4.2 17:17:27 10° ESE 17:20:52 19° ENE 17:24:14 10° NNE
TIMED 4.5 17:18:20 10° S 17:22:39 69° ESE 17:27:01 10° NNE
Cosmos 482 Debris 2.4 17:20:57 10° NW 17:22:42 56° NE 17:23:46 21° ESE
SL-8 Rocket 4.0 17:16:41 10° N 17:22:58 82° E 17:29:16 10° S
Cosmos 2341 Rocket 4.3 17:18:13 10° N 17:24:31 75° W 17:30:50 10° S
Cosmos 1238 Rocket 4.4 17:22:59 10° NNE 17:25:55 18° ENE 17:29:12 10° ESE
Radarsat Rocket 4.5 17:20:36 10° S 17:26:40 72° WSW 17:33:32 10° NNW
COSMO-SKYMED 1 3.4 17:23:20 10° NE 17:27:11 30° E 17:31:00 10° SSE
X-37B 0.5 17:24:20 10° WSW 17:27:31 86° SSE 17:29:28 21° ENE
Cosmos 1689 Rocket 4.2 17:29:01 13° ESE 17:29:01 13° ESE 17:29:45 10° SE
USA 281 4.0 17:22:53 10° ESE 17:28:14 28° NE 17:33:36 10° N
Cosmos 1959 Rocket 4.5 17:22:10 10° N 17:28:35 75° E 17:34:53 10° SSE
Cosmos 2228 Rocket 4.1 17:28:17 10° SE 17:32:00 25° E 17:34:29 16° NE
CORIOLIS 4.2 17:26:45 10° SSE 17:32:10 88° ENE 17:37:39 10° NNW
Helios 1A Rocket 4.5 17:33:25 17° NE 17:33:25 17° NE 17:35:07 10° NNE
USA 81 4.0 17:27:14 10° N 17:32:33 86° E 17:37:50 10° S
Meteor 1-4 Rocket 2.4 17:29:38 10° S 17:33:13 75° E 17:36:47 10° NNE
Cosmos 2285 Rocket 4.2 17:28:40 10° NNW 17:35:04 77° WSW 17:41:22 10° SSE
H-2A R/B 3.3 17:35:18 19° ENE 17:35:46 19° ENE 17:39:16 10° NNE
Cosmos 1812 3.8 17:32:44 10° SE 17:35:50 24° E 17:36:35 22° ENE
Cosmos 1939 Rocket 3.1 17:34:25 10° SE 17:38:05 42° ENE 17:41:49 10° N
USA 267 4.1 17:34:11 17° ENE 17:38:17 32° NNE 17:43:54 10° NW
Cosmos 1821 Rocket 4.4 17:32:46 10° N 17:38:35 38° ENE 17:44:25 10° SE
Cosmos 1328 Rocket 3.7 17:34:54 10° SSW 17:39:12 75° W 17:43:34 10° N
CZ-4 R/B 2.7 17:41:27 20° NE 17:41:27 20° NE 17:43:39 10° NNE
BREEZE-M DEB (TANK) 3.5 17:38:03 10° SSW 17:41:41 25° SSE 17:42:52 20° ESE
Cosmos 44 Rocket 4.2 17:38:23 10° NNW 17:42:57 30° NE 17:45:09 22° E
Cosmos 1933 Rocket 3.6 17:39:28 10° N 17:43:53 55° E 17:48:14 10° SSE
IRS-1C Rocket 4.3 17:39:26 10° SE 17:44:27 47° ENE 17:49:30 10° N
Cosmos 1602 3.7 17:42:30 10° N 17:46:26 87° W 17:50:18 10° S
Cosmos 2181 Rocket 4.4 17:40:44 10° SSW 17:47:06 67° W 17:53:26 10° N
Lacrosse 4 Rocket 3.3 17:45:42 10° SE 17:46:59 14° SE 17:46:59 14° SE
NOAA 11 4.2 17:42:46 10° SSE 17:48:11 88° WSW 17:53:40 10° NNW
Cosmos 1680 Rocket 4.3 17:44:05 10° SSE 17:48:37 30° E 17:50:19 25° ENE
CZ-4B R/B 3.9 17:44:19 10° S 17:49:30 55° W 17:54:42 10° NNW
SL-24 R/B 4.0 17:49:33 25° NE 17:51:19 43° E 17:54:47 10° S
Cosmos 1603 3.7 17:47:06 10° S 17:52:39 64° ESE 17:56:56 17° NNE
CZ-2D R/B 3.4 17:51:17 10° SE 17:54:55 45° ENE 17:58:37 10° N
Cosmos 1943 3.2 17:50:29 10° S 17:56:02 60° ESE 17:59:58 20° NE
Cosmos 1538 Rocket 4.2 17:52:49 10° SSW 17:58:10 75° WNW 18:03:35 10° NNE
H-2A R/B 3.9 17:55:11 10° N 17:58:53 30° WNW 18:02:40 10° SW
Cosmos 2369 Rocket 2.1 17:53:53 10° NNW 17:59:36 85° ENE 18:05:14 10° SSE
Cosmos 1943 Rocket 2.8 17:55:20 10° NNW 18:00:48 58° WSW 18:06:16 10° S
Cosmos 1782 3.5 17:57:44 10° SSW 18:01:38 55° W 18:05:34 10° N
Okean O Rocket 3.0 17:57:37 10° S 18:01:43 40° W 18:05:52 10° NNW
Meteor 1-14 Rocket 4.4 17:56:00 10° N 18:02:01 87° W 18:08:01 10° S
Meteor 1-5 Rocket 4.3 17:56:18 10° N 18:02:07 57° ENE 18:07:44 10° SSE
Cosmos 1461 4.1 17:58:57 10° S 18:02:44 28° ESE 18:02:44 28° ESE
Okean-O 2.9 17:59:09 10° SE 18:03:18 42° ENE 18:07:29 10° N
CENTAUR R/B 3.0 18:00:56 10° S 18:06:06 36° ESE 18:07:44 31° E
ISS -2.0 18:03:38 10° NW 18:05:55 21° N 18:05:55 21° N
Cosmos 2112 Rocket 4.5 18:04:15 10° S 18:09:06 39° ESE 18:09:54 37° E
SL-08 R/B 4.5 18:06:55 10° N 18:13:03 82° W 18:19:10 10° S
ERS-2 2.8 18:10:45 15° N 18:13:39 54° WNW 18:17:14 10° SSW
NOSS 3-2 (C) 3.8 18:09:06 10° S 18:14:11 39° ESE 18:15:09 36° E
SKYMED 2 3.6 18:11:44 15° N 18:15:23 82° WNW 18:19:43 10° SSW
Cosmos 1869 Rocket 3.9 18:14:14 10° N 18:22:43 11° SSE 18:22:58 10° SSE
BREEZE-M DEB (TANK) 3.2 18:09:45 10° SW 18:19:06 76° SSE 18:19:59 53° E
Meteor 1-27 Rocket 4.0 18:15:14 10° SSE 18:20:11 41° E 18:20:11 41° E
Meteor 1-10 Rocket 4.1 18:19:08 10° S 18:24:45 75° E 18:28:49 19° NNE
Lacrosse 5 rocket 3.4 18:23:38 10° NW 18:25:31 14° NNW 18:25:53 13° NNW
FALCON 9 R/B 3.1 18:27:43 10° SW 18:28:29 14° SSW 18:28:29 14° SSW
CZ-4B R/B 3.7 18:29:34 12° NNW 18:31:38 21° WNW 18:34:07 10° WSW
NOSS 3-2 (A) 3.3 18:33:45 10° SW 18:39:21 84° NW 18:41:27 44° NNE
Cosmos 1500 4.4 18:38:45 10° NNW 18:42:22 42° W 18:46:00 10° SSW
YAOGAN 1 3.8 18:46:29 31° NNW 18:46:29 31° NNW 18:48:49 10° NNW
Cosmos 2239 Rocket 4.5 18:39:05 10° N 18:45:16 80° W 18:51:28 10° S
Cosmos 1535 Rocket 4.3 18:40:04 10° N 18:46:10 68° E 18:52:15 10° SSE
USA 215 3.1 18:46:42 50° NE 18:48:40 89° NNW 18:55:14 10° SW
Cosmos 1656 Rocket 4.0 18:49:03 10° NNW 18:54:37 63° WSW 18:58:58 16° S
MOS 1 Rocket 3.7 18:52:44 35° N 18:55:06 73° WNW 19:00:25 10° SSW
USA 238 DEB 3.7 18:52:08 10° SW 18:58:42 75° NW 19:00:34 50° NNE
USA 238 3.7 18:52:13 10° SW 18:58:48 75° NW 19:00:38 50° NNE
CZ-2C R/B 3.6 18:55:31 10° S 19:00:24 52° W 19:05:08 10° NNW
X-37B 3.8 19:01:07 10° W 19:01:44 15° WNW 19:01:44 15° WNW
Cosmos 1238 Rocket 4.3 19:01:32 10° NNW 19:05:27 41° W 19:10:08 10° SSW
Cosmos 1934 Rocket 4.0 19:01:46 10° N 19:08:08 78° W 19:14:24 10° S
CSL-04 Debris 4.4 19:09:14 64° NW 19:09:14 64° NW 19:13:55 10° NNW
USA 281 3.4 19:05:43 10° SSE 19:12:14 67° WSW 19:18:48 10° NNW
H-2A R/B 2.8 19:15:56 48° NW 19:15:56 48° NW 19:19:51 10° NNW
CZ-4 R/B 3.8 19:17:28 18° NW 19:17:28 18° NW 19:18:54 10° NW
USA 267 3.4 19:21:32 61° N 19:21:32 61° N 19:27:07 10° NW
Cosmos 44 Rocket 4.5 19:19:43 10° NW 19:23:56 43° W 19:23:56 43° W
Lacrosse 4 Rocket 4.0 19:22:25 10° SW 19:23:20 16° SW 19:23:20 16° SW
CENTAUR R/B 3.6 19:50:47 10° WSW 19:54:58 39° W 19:54:58 39° W
